TimeEST,TemperatureF,Dew PointF,Humidity,Sea Level PressureIn,VisibilityMPH,Wind Direction,Wind SpeedMPH,Gust SpeedMPH,PrecipitationIn,Events,Conditions,WindDirDegrees,DateUTC
12:53 AM,73.9,71.1,91,30.16,10.0,ENE,5.8,-,N/A,,Clear,70,2013-01-06 05:53:00
1:53 AM,73.9,71.1,91,30.13,10.0,ENE,5.8,-,N/A,,Clear,70,2013-01-06 06:53:00
2:53 AM,73.9,72.0,93,30.11,10.0,East,8.1,-,N/A,,Clear,90,2013-01-06 07:53:00
3:53 AM,73.9,72.0,93,30.10,10.0,East,5.8,-,N/A,,Clear,80,2013-01-06 08:53:00
4:53 AM,73.9,72.0,93,30.10,10.0,ENE,3.5,-,N/A,,Partly Cloudy,70,2013-01-06 09:53:00
5:53 AM,75.0,71.1,87,30.10,10.0,ESE,11.5,-,N/A,,Partly Cloudy,120,2013-01-06 10:53:00
6:53 AM,75.0,70.0,84,30.11,10.0,ESE,11.5,-,N/A,,Clear,120,2013-01-06 11:53:00
7:53 AM,75.9,71.1,85,30.12,10.0,ESE,10.4,-,N/A,,Clear,110,2013-01-06 12:53:00
8:53 AM,77.0,71.1,82,30.13,10.0,ESE,11.5,-,N/A,,Clear,120,2013-01-06 13:53:00
9:53 AM,78.1,71.1,79,30.14,10.0,ESE,13.8,-,N/A,,Clear,120,2013-01-06 14:53:00
10:53 AM,78.8,71.6,78,30.13,10.0,ESE,11.5,-,N/A,,Clear,120,2013-01-06 15:53:00
11:53 AM,80.1,72.0,76,30.12,10.0,ESE,11.5,-,N/A,,Clear,120,2013-01-06 16:53:00
12:53 PM,79.0,72.0,79,30.09,10.0,ESE,9.2,-,N/A,,Partly Cloudy,120,2013-01-06 17:53:00
1:53 PM,80.1,72.0,76,30.06,10.0,SE,8.1,-,N/A,,Clear,130,2013-01-06 18:53:00
2:53 PM,80.1,73.0,79,30.05,10.0,SE,9.2,-,N/A,,Partly Cloudy,130,2013-01-06 19:53:00
3:53 PM,79.0,72.0,79,30.06,10.0,ESE,6.9,-,N/A,,Partly Cloudy,120,2013-01-06 20:53:00
4:53 PM,78.1,72.0,81,30.06,10.0,ESE,5.8,-,N/A,,Scattered Clouds,120,2013-01-06 21:53:00
5:53 PM,77.0,72.0,84,30.07,10.0,ESE,4.6,-,N/A,,Scattered Clouds,110,2013-01-06 22:53:00
6:53 PM,75.9,72.0,87,30.09,10.0,Calm,Calm,-,N/A,,Clear,0,2013-01-06 23:53:00
7:53 PM,75.9,73.0,91,30.10,10.0,East,5.8,-,N/A,,Clear,100,2013-01-07 00:53:00
8:53 PM,75.9,73.0,91,30.11,10.0,Calm,Calm,-,N/A,,Clear,0,2013-01-07 01:53:00
9:53 PM,75.0,72.0,90,30.12,10.0,East,4.6,-,N/A,,Clear,100,2013-01-07 02:53:00
10:53 PM,75.0,72.0,90,30.12,10.0,Calm,Calm,-,N/A,,Clear,0,2013-01-07 03:53:00
11:53 PM,75.0,72.0,90,30.11,10.0,East,5.8,-,N/A,,Clear,100,2013-01-07 04:53:00